This is the latest recevied weather packets stored in our database for station/object OE5HCE. If no packets are shown the sender has not sent any weather packets the latest 1 day(s).
| Time | Temp. | Humidity | Pressure | Rain* | Wind** | Luminosity | Snow |
|---|---|---|---|---|---|---|---|
| 1778008527 | 14.44° C | 71% | 1005.9 hPa | 0 mm | 0 m/s | 0 W/m² | - |
| 1778007626 | 14.44° C | 70% | 1005.8 hPa | 1.02 mm | 0 m/s | 0 W/m² | - |
| 1778006727 | 14.44° C | 69% | 1005.5 hPa | 2.29 mm | 0 m/s | 0 W/m² | - |
| 1778005835 | 14.44° C | 69% | 1005.2 hPa | 2.29 mm | 0 m/s | 0 W/m² | - |
| 1778004928 | 15° C | 75% | 1004.9 hPa | 2.29 mm | 0 m/s | 0 W/m² | - |
| 1778004025 | 15.56° C | 77% | 1004.8 hPa | 1.27 mm | 0 m/s | 0 W/m² | - |
| 1778003123 | 16.67° C | 72% | 1004.5 hPa | 0 mm | 0 m/s | 0 W/m² | - |
| 1778002221 | 18.89° C | 61% | 1004.1 hPa | 0 mm | 0 m/s | 0 W/m² | - |
| 1778001321 | 23.89° C | 44% | 1003.6 hPa | 0 mm | 0 m/s | 0 W/m² | - |
| 1778000420 | 24.44° C | 43% | 1003 hPa | 0 mm | 0 m/s | 12 W/m² | - |
| 1777999520 | 24.44° C | 43% | 1003 hPa | 0 mm | 0 m/s | 30 W/m² | - |
| 1777998620 | 25.56° C | 42% | 1003 hPa | 0 mm | 0 m/s | 60 W/m² | - |
| 1777997717 | 25.56° C | 39% | 1003.3 hPa | 0 mm | 0 m/s | 81 W/m² | - |
| 1777996815 | 26.11° C | 38% | 1003.4 hPa | 0 mm | 0 m/s | 77 W/m² | - |
| 1777995915 | 26.11° C | 37% | 1003.4 hPa | 0 mm | 0 m/s | 95 W/m² | - |
| 1777995013 | 26.11° C | 38% | 1003.5 hPa | 0 mm | 0 m/s | 100 W/m² | - |
| 1777994111 | 27.22° C | 35% | 1003.6 hPa | 0 mm | 0 m/s | 176 W/m² | - |
| 1777993217 | 28.33° C | 34% | 1003.6 hPa | 0 mm | 0 m/s | 366 W/m² | - |
| 1777992309 | 27.22° C | 39% | 1003.8 hPa | 0 mm | 0 m/s | 568 W/m² | - |
| 1777991408 | 26.11° C | 36% | 1003.9 hPa | 0 mm | 0 m/s | 292 W/m² | - |
| 1777990507 | 28.33° C | 35% | 1004.1 hPa | 0 mm | 0 m/s | 269 W/m² | - |
| 1777989607 | 27.78° C | 34% | 1004.3 hPa | 0 mm | 0 m/s | 587 W/m² | - |
| 1777988704 | 27.78° C | 35% | 1004.5 hPa | 0 mm | 0 m/s | 628 W/m² | - |
| 1777987858 | 27.78° C | 36% | 1004.5 hPa | 0 mm | 0 m/s | 661 W/m² | - |
| 1777986959 | 27.22° C | 39% | 1004.8 hPa | 0 mm | 0 m/s | 701 W/m² | - |
* Rain latest hour (hover to see other rain measurements)
** Current wind speed in m/s (hover to see current wind gust speed)